When you browse on this site, cookies collect data to enhance your experience and personalize the content and advertising you see.
Visit our Privacy Policy to learn more. By continuing to use the site, you agree to this use of cookies and data.
  • In Austria
  • List of Countries
  • For 7 days
  • Water Temperature
  • Weather Map
  • News
  • Weather Widgets
  • user-avatar
    Login

    Hourly Weather Tegu

    Today, 5 April, Sunday

    Time Temperature Precipitation Wind Pressure Humidity
    00:00 +7°C° 0 mm 1 mps 760 mmHg 57%
    01:00 +6°C° 0 mm 1 mps 760 mmHg 56%
    02:00 +5°C° 0 mm 1 mps 760 mmHg 54%
    03:00 +5°C° 0 mm 1 mps 760 mmHg 53%
    04:00 +4°C° 0 mm 1 mps 760 mmHg 54%
    05:00 +4°C° 0 mm 1 mps 760 mmHg 54%
    06:00 +3°C° 0 mm 1 mps 761 mmHg 55%
    07:00 +5°C° 0 mm 1 mps 761 mmHg 48%
    08:00 +7°C° 0 mm 1 mps 761 mmHg 41%
    09:00 +10°C° 0 mm 1 mps 761 mmHg 33%
    10:00 +11°C° 0 mm 1 mps 761 mmHg 28%
    11:00 +13°C° 0 mm 1 mps 761 mmHg 23%
    12:00 +14°C° 0 mm 2 mps 761 mmHg 18%
    13:00 +15°C° 0 mm 2 mps 760 mmHg 17%
    14:00 +15°C° 0 mm 2 mps 760 mmHg 16%
    15:00 +16°C° 0 mm 2 mps 759 mmHg 15%
    16:00 +14°C° 0 mm 3 mps 759 mmHg 18%
    17:00 +13°C° 0 mm 3 mps 760 mmHg 22%
    18:00 +13°C° 0 mm 3 mps 760 mmHg 26%
    19:00 +12°C° 0 mm 2 mps 760 mmHg 29%
    20:00 +9°C° 0 mm 2 mps 761 mmHg 33%
    21:00 +8°C° 0 mm 1 mps 761 mmHg 39%
    22:00 +8°C° 0 mm 1 mps 761 mmHg 40%
    23:00 +7°C° 0 mm 1 mps 761 mmHg 41%

    Tomorrow, 6 April, Monday

    Time Temperature Precipitation Wind Pressure Humidity
    00:00 +5°C° 0 mm 0 mps 761 mmHg 43%
    01:00 +5°C° 0 mm 0 mps 761 mmHg 44%
    02:00 +4°C° 0 mm 0 mps 761 mmHg 44%
    03:00 +4°C° 0 mm 0 mps 760 mmHg 45%
    04:00 +4°C° 0 mm 0 mps 760 mmHg 46%
    05:00 +3°C° 0 mm 0 mps 760 mmHg 47%
    06:00 +3°C° 0 mm 0 mps 761 mmHg 48%
    07:00 +5°C° 0 mm 0 mps 760 mmHg 43%
    08:00 +9°C° 0 mm 1 mps 760 mmHg 38%
    09:00 +11°C° 0 mm 1 mps 760 mmHg 33%
    10:00 +13°C° 0 mm 1 mps 760 mmHg 29%
    11:00 +15°C° 0 mm 1 mps 760 mmHg 24%
    12:00 +17°C° 0 mm 2 mps 760 mmHg 20%
    13:00 +17°C° 0 mm 2 mps 759 mmHg 20%
    14:00 +18°C° 0 mm 2 mps 759 mmHg 19%
    15:00 +18°C° 0 mm 2 mps 758 mmHg 19%
    16:00 +17°C° 0 mm 2 mps 758 mmHg 23%
    17:00 +16°C° 0 mm 2 mps 758 mmHg 26%
    18:00 +15°C° 0 mm 2 mps 758 mmHg 30%
    19:00 +14°C° 0 mm 2 mps 758 mmHg 35%
    20:00 +13°C° 0 mm 2 mps 758 mmHg 40%
    21:00 +11°C° 0 mm 1 mps 758 mmHg 45%
    22:00 +11°C° 0 mm 1 mps 758 mmHg 47%
    23:00 +10°C° 0 mm 1 mps 758 mmHg 48%

    Day after tomorrow, 7 April, Tuesday

    Time Temperature Precipitation Wind Pressure Humidity
    00:00 +10°C° 0 mm 1 mps 758 mmHg 50%
    01:00 +9°C° 0 mm 1 mps 757 mmHg 49%
    02:00 +9°C° 0 mm 1 mps 757 mmHg 48%
    03:00 +9°C° 0 mm 1 mps 757 mmHg 48%
    04:00 +8°C° 0 mm 1 mps 757 mmHg 48%
    05:00 +8°C° 0 mm 1 mps 757 mmHg 48%
    06:00 +7°C° 0 mm 1 mps 757 mmHg 48%
    07:00 +9°C° 0 mm 1 mps 757 mmHg 44%
    08:00 +12°C° 0 mm 1 mps 757 mmHg 40%
    09:00 +14°C° 0 mm 2 mps 757 mmHg 36%
    10:00 +16°C° 0 mm 2 mps 756 mmHg 35%
    11:00 +18°C° 0 mm 2 mps 756 mmHg 33%
    12:00 +19°C° 0 mm 3 mps 756 mmHg 32%
    13:00 +20°C° 0 mm 4 mps 755 mmHg 32%
    14:00 +21°C° 0 mm 5 mps 755 mmHg 31%
    15:00 +21°C° 0 mm 5 mps 754 mmHg 31%
    16:00 +20°C° 0 mm 5 mps 754 mmHg 34%
    17:00 +19°C° 0 mm 4 mps 754 mmHg 37%
    18:00 +18°C° 0 mm 4 mps 754 mmHg 40%
    19:00 +16°C° 0 mm 3 mps 754 mmHg 46%
    20:00 +14°C° 0 mm 2 mps 754 mmHg 52%
    21:00 +12°C° 0 mm 1 mps 755 mmHg 59%
    22:00 +12°C° 0 mm 1 mps 755 mmHg 62%
    23:00 +11°C° 0 mm 1 mps 755 mmHg 64%

    8 April, Wednesday

    Time Temperature Precipitation Wind Pressure Humidity
    00:00 +11°C° 0 mm 1 mps 755 mmHg 67%
    01:00 +9°C° 0 mm 2 mps 755 mmHg 66%
    02:00 +8°C° 0 mm 2 mps 755 mmHg 64%
    03:00 +8°C° 0 mm 2 mps 755 mmHg 63%
    04:00 +7°C° 0 mm 2 mps 756 mmHg 60%
    05:00 +7°C° 0 mm 2 mps 756 mmHg 58%
    06:00 +6°C° 0 mm 2 mps 756 mmHg 56%
    07:00 +8°C° 0 mm 3 mps 757 mmHg 47%
    08:00 +9°C° 0 mm 3 mps 757 mmHg 38%
    09:00 +11°C° 0 mm 4 mps 757 mmHg 29%
    10:00 +12°C° 0 mm 5 mps 758 mmHg 26%
    11:00 +14°C° 0 mm 5 mps 758 mmHg 22%
    12:00 +15°C° 0 mm 6 mps 758 mmHg 19%
    13:00 +15°C° 0 mm 6 mps 757 mmHg 18%
    14:00 +15°C° 0 mm 6 mps 757 mmHg 17%
    15:00 +16°C° 0 mm 6 mps 757 mmHg 17%
    16:00 +15°C° 0 mm 5 mps 757 mmHg 19%
    17:00 +13°C° 0 mm 4 mps 757 mmHg 21%
    18:00 +12°C° 0 mm 4 mps 758 mmHg 23%
    19:00 +11°C° 0 mm 3 mps 758 mmHg 26%
    20:00 +9°C° 0 mm 3 mps 759 mmHg 29%
    21:00 +8°C° 0 mm 2 mps 759 mmHg 32%
    22:00 +7°C° 0 mm 2 mps 759 mmHg 35%
    23:00 +7°C° 0 mm 1 mps 759 mmHg 38%

    9 April, Thursday

    Time Temperature Precipitation Wind Pressure Humidity
    00:00 +7°C° 0 mm 1 mps 760 mmHg 41%
    01:00 +6°C° 0 mm 1 mps 760 mmHg 44%
    02:00 +6°C° 0 mm 1 mps 760 mmHg 47%
    03:00 +6°C° 0 mm 1 mps 760 mmHg 50%
    04:00 +5°C° 0 mm 1 mps 760 mmHg 53%
    05:00 +4°C° 0 mm 0 mps 760 mmHg 55%
    06:00 +4°C° 0 mm 0 mps 760 mmHg 58%
    07:00 +7°C° 0 mm 1 mps 760 mmHg 52%
    08:00 +9°C° 0 mm 1 mps 760 mmHg 47%
    09:00 +11°C° 0 mm 1 mps 761 mmHg 41%
    10:00 +13°C° 0 mm 2 mps 761 mmHg 37%
    11:00 +14°C° 0 mm 2 mps 760 mmHg 32%
    12:00 +14°C° 0 mm 3 mps 760 mmHg 28%
    13:00 +16°C° 0 mm 3 mps 760 mmHg 27%
    14:00 +16°C° 0 mm 3 mps 760 mmHg 26%
    15:00 +17°C° 0 mm 3 mps 759 mmHg 25%
    16:00 +16°C° 0 mm 3 mps 759 mmHg 29%
    17:00 +16°C° 0 mm 2 mps 760 mmHg 32%
    18:00 +15°C° 0 mm 2 mps 760 mmHg 35%
    19:00 +13°C° 0 mm 2 mps 760 mmHg 39%
    20:00 +12°C° 0 mm 2 mps 761 mmHg 43%
    21:00 +9°C° 0 mm 2 mps 762 mmHg 47%
    22:00 +8°C° 0 mm 2 mps 762 mmHg 51%
    23:00 +8°C° 0 mm 2 mps 762 mmHg 54%

    10 April, Friday

    Time Temperature Precipitation Wind Pressure Humidity
    00:00 +8°C° 0 mm 1 mps 762 mmHg 58%
    01:00 +7°C° 0 mm 1 mps 762 mmHg 60%
    02:00 +7°C° 0 mm 1 mps 762 mmHg 63%
    03:00 +6°C° 0 mm 1 mps 761 mmHg 65%
    04:00 +6°C° 0 mm 1 mps 762 mmHg 66%
    05:00 +6°C° 0 mm 1 mps 762 mmHg 68%
    06:00 +5°C° 0 mm 1 mps 762 mmHg 69%
    07:00 +8°C° 0 mm 1 mps 762 mmHg 62%
    08:00 +10°C° 0 mm 1 mps 762 mmHg 54%
    09:00 +12°C° 0 mm 1 mps 762 mmHg 46%
    10:00 +14°C° 0 mm 1 mps 762 mmHg 41%
    11:00 +15°C° 0 mm 2 mps 761 mmHg 36%
    12:00 +17°C° 0 mm 2 mps 761 mmHg 31%
    13:00 +17°C° 0 mm 2 mps 760 mmHg 29%
    14:00 +18°C° 0 mm 2 mps 760 mmHg 27%
    15:00 +18°C° 0 mm 2 mps 759 mmHg 26%
    16:00 +17°C° 0 mm 3 mps 759 mmHg 29%
    17:00 +17°C° 0 mm 3 mps 759 mmHg 32%
    18:00 +16°C° 0 mm 3 mps 759 mmHg 36%
    19:00 +13°C° 0 mm 3 mps 759 mmHg 39%
    20:00 +11°C° 0 mm 3 mps 760 mmHg 42%
    21:00 +10°C° 0 mm 3 mps 760 mmHg 46%
    22:00 +9°C° 0 mm 2 mps 760 mmHg 48%
    23:00 +8°C° 0 mm 2 mps 760 mmHg 51%
    Show more